FENGYUN 1C DEB, 32432

Orbit data source: Space-Track

FENGYUN 1C DEB, 32432 is space debris in SSO originally from a launch on Mon, 10 May 1999 UTC launched from the Taiyaun Space Center, China (TSC). Fengyun 1C debris stems from the Chinese weather satellite Fengyun-1C, which was intentionally destroyed by a Chinese anti-satellite missile in 2007. This event dramatically increased the amount of space debris, with thousands of trackable fragments posing hazards to satellites and human spaceflight. The Fengyun 1C debris cloud has become a focal point in discussions about space sustainability and the need for international regulations to prevent the creation of new debris.

Loading next visibility...
Identifier
32432, 1999-025DAU
Orbit
SSO
Country
Flag of CNCN / PRC
Related business
Manufacturer
Unknown
Mission
Spacecraft
Bus & Motor
Unknown
Mass
Unknown
Launch date (UTC)
1999-05-10 (26 years ago)
Launch vehicle
Unknown
Launch site
Taiyaun Space Center, China (TSC)
Object type
Payload
Rocket body
Debris
Shape & HBR
Unknown shape, 0.1 m
Radar Cross Section
Small (<0.1 m²)

Expand to show TLE details & history
Last TLE update: 3 days ago

TLE from 3 days ago
0 FENGYUN 1C DEB
1 32432U 99025DAU 25299.82394484  .00010057  00000-0  20611-2 0  9993
2 32432  98.1760 337.2421 0177891  90.4458 271.7124 14.51367225700144
Epoch: 2025-10-26T19:46Z
TLE epoch observation values (Epoch: 2025-10-26T19:46:28.834Z)
Latitude
0.00009°
Longitude
5.18734°
Altitude
722.634 km
Speed
7.495 km/s
True Right ascension
22h 28m 58s
True Declination
0° 00' 00"
Sunlit
Object was in full shadow at epoch
Visualization orbit readout
Latitude
Unknown
Longitude
Unknown
Altitude
Unknown
Speed
Unknown
Apparent Right ascension
Unknown
Apparent Declination
Unknown
Sunlit
N/A
Visualization observer readout
Local Sidereal Time
20:47:10
Azimuth
Unknown
Elevation
Unknown
Doppler factor
Unknown
Orbital elements
Apogee altitude
844.516 km
Perigee altitude
592.038 km
Semi-major axis
7,096.414 km
Eccentricity
0.01779
Inclination
98.176°
RAAN
337.2421°
Arg. of periapsis
90.4458°
True anomaly
269.67391°
Mean anomaly
271.7124°
Eccentric anomaly
270.69323°
Mean motion
3.63065 °/min
Orbital period
99.16 mins
BSTAR
0.0020611
Loading maneuver chart data...
Computing Atmospheric mass density...

Documentation

Showing up to 5 results
|